* Astronomy

Members Login
Post Info TOPIC: Asteroid 2010 OA101


L

Posts: 131433
Date:
Asteroid 2010 OA101
Permalink  
 


Orbital elements:
2010 OA101
Epoch 2010 July 23.0 TT = JDT 2455400.5 MPC
M 355.32589 (2000.0) P Q
n 0.10729886 Peri. 198.01169 +0.91025333 -0.26258227
a 4.3860406 Node 161.23364 -0.13179445 +0.54922804
e 0.6844510 Incl. 84.33682 -0.39251636 -0.79334678
P 9.19 H 18.5 G 0.15 U 7

MPEC 2010 - P07


__________________
Page 1 of 1  sorted by
 
Quick Reply

Please log in to post quick replies.



Create your own FREE Forum
Report Abuse
Powered by ActiveBoard